RH
49 50 53 53 53 52 51 50 49 48 48 45 43 42 41 40 39 39 37 36 35 34 33 32 32 34 37 41 43 44 45 44 45 45 46 48 49 49 50 51 53 54
44 44 48 52 56 56 54 53 51 50 49 47 46 45 43 41 39 39 38 37 36 37 36 34 32 32 35 39 42 44 44 44 44 45 46 47 48 50 50 51 53 55
38 41 47 53 56 57 56 55 54 54 52 51 49 47 45 42 40 39 37 36 37 39 39 37 34 32 32 35 39 42 43 44 43 43 44 45 47 49 50 52 53 55
40 47 50 50 51 52 53 53 53 54 52 51 50 48 47 44 41 39 37 36 38 39 40 39 36 32 31 33 36 40 42 43 43 43 44 45 46 49 50 52 54 56
45 48 49 50 53 52 51 51 50 51 51 51 52 53 51 47 43 40 38 37 38 39 40 39 37 33 32 32 35 39 41 43 44 44 45 46 46 49 50 52 55 58
51 54 56 56 52 46 44 45 47 52 56 61 65 67 63 54 47 42 40 39 39 39 40 40 38 35 34 34 35 37 39 41 43 45 46 48 47 48 51 53 56 59
61 62 56 47 39 34 31 36 51 68 76 81 84 82 79 70 57 47 42 41 41 41 43 43 40 38 38 38 37 37 38 39 41 44 47 49 49 50 52 54 57 60
60 52 43 39 37 32 33 46 67 79 81 83 82 80 82 81 74 66 57 52 50 51 50 45 41 42 44 42 38 37 39 40 42 44 47 50 52 53 54 55 58 60
48 42 39 41 40 39 49 65 73 72 71 75 75 73 75 77 78 78 74 68 63 58 53 48 46 49 49 45 42 40 40 42 44 45 48 51 54 56 57 58 60 61
44 43 41 42 46 55 67 71 68 66 67 67 67 66 65 66 67 70 75 76 73 66 59 55 54 54 52 49 46 44 44 45 47 49 51 53 55 57 59 60 62 64
46 44 43 49 62 71 71 66 61 60 58 56 57 56 57 60 59 59 64 69 71 71 69 64 60 58 57 55 52 49 49 49 50 53 55 57 58 59 60 62 65 66
46 48 55 66 73 69 64 61 58 58 57 58 60 61 62 66 65 63 63 64 63 67 71 73 71 67 63 60 57 55 53 53 54 56 58 61 62 63 64 65 67 69
51 61 70 72 67 63 62 62 62 63 64 63 65 69 72 75 77 76 75 73 70 68 69 72 73 74 74 70 64 60 58 57 58 60 62 64 66 67 68 68 69 70
65 70 69 63 62 63 65 66 68 69 69 68 70 74 77 79 82 83 82 81 81 78 77 76 73 74 77 76 71 66 64 64 63 65 67 68 70 71 71 73 73 73
68 64 60 60 63 65 67 71 73 74 74 74 76 78 80 81 82 83 83 83 84 83 83 84 83 80 79 80 78 73 70 69 68 69 72 73 75 76 76 77 77 78
62 59 60 64 67 69 72 76 77 78 78 79 81 82 83 83 82 83 85 86 87 86 84 85 87 86 82 81 82 79 76 76 75 74 75 78 80 80 80 81 82 82
64 64 66 69 71 74 78 80 80 81 82 83 84 85 84 86 88 88 87 87 87 86 86 88 89 88 84 81 81 81 78 77 81 83 82 82 83 83 83 84 85 85
70 69 72 75 77 80 81 82 83 84 86 86 87 87 87 89 89 87 86 85 85 86 88 88 87 85 82 80 81 81 79 76 80 88 90 87 85 86 86 86 87 87
74 75 77 79 81 84 84 85 87 87 88 89 89 90 90 89 88 87 86 86 87 89 90 89 88 85 81 80 81 80 80 79 79 86 94 93 88 87 88 88 88 88
79 80 82 83 85 86 86 87 89 90 90 90 91 92 91 89 89 88 86 85 86 87 88 91 94 89 83 83 82 78 77 78 76 81 93 96 91 88 88 88 88 88
83 84 86 87 87 88 89 90 91 91 92 91 91 92 90 90 89 87 86 86 87 89 92 93 92 87 83 83 83 80 80 81 79 81 93 99 94 89 88 87 87 88
87 88 89 89 89 90 92 92 92 93 92 91 91 91 91 91 89 88 89 89 88 90 92 91 90 89 87 83 81 81 85 88 86 86 95 101 97 93 91 89 88 89
89 91 92 92 92 93 94 94 93 93 92 92 93 93 92 92 91 89 89 89 90 91 91 91 92 91 84 79 80 84 89 93 92 92 98 102 99 96 94 91 89 89
91 92 94 95 95 95 95 94 93 93 92 92 92 93 93 92 91 90 89 90 91 90 90 93 94 86 79 79 83 86 91 95 96 96 100 101 99 98 95 92 91 90
91 92 94 96 96 95 94 94 94 92 91 90 89 91 92 90 89 90 91 90 87 85 88 93 90 83 80 84 86 86 89 95 99 100 100 100 101 100 98 95 95 95
92 93 95 95 95 94 92 92 91 90 88 88 89 89 88 88 87 88 90 87 82 84 91 90 84 83 88 88 86 84 86 92 99 101 100 100 101 100 99 99 99 99
Wind_Speed
36 36 37 37 38 39 38 37 36 36 36 35 35 36 36 34 31 28 26 24 23 24 27 31 35 38 38 38 38 37 37 37 37 36 34 35 36 36 35 36 35 33
37 37 37 38 38 38 38 37 37 38 38 38 38 39 39 37 34 32 29 25 23 23 23 27 32 35 37 38 37 37 38 37 37 36 34 35 36 36 37 36 35 35
37 36 36 36 37 37 37 38 38 38 39 40 41 41 41 40 37 35 31 27 25 24 24 24 28 32 35 37 37 38 38 38 38 36 35 36 36 36 37 36 35 35
35 34 33 34 35 35 36 37 37 37 38 39 40 42 42 41 39 36 32 29 28 28 28 26 27 30 33 35 36 38 39 39 38 36 34 36 36 35 36 35 34 35
33 33 34 34 34 35 37 37 38 38 38 39 40 41 41 40 39 37 35 34 33 32 31 28 28 29 31 32 35 37 38 37 37 35 34 35 35 35 35 34 34 35
34 34 33 34 36 39 40 39 39 38 38 38 39 39 39 39 40 39 37 36 34 31 28 27 28 28 29 31 34 36 36 35 35 34 34 35 35 34 34 33 34 34
34 33 34 38 42 43 41 39 36 34 34 36 37 37 38 38 37 36 34 32 30 29 28 28 28 28 28 30 33 34 34 34 35 34 35 35 35 35 34 34 34 34
35 37 40 44 45 43 38 33 32 34 35 36 37 37 38 37 36 34 33 32 31 30 30 29 28 28 29 31 32 33 33 33 34 34 35 35 34 34 35 34 34 34
40 42 43 44 42 38 33 33 37 40 38 37 38 40 40 39 38 37 35 34 33 32 31 30 30 30 31 32 32 33 33 33 34 35 35 35 35 35 35 34 34 34
41 41 41 40 37 33 33 38 41 41 40 40 41 42 44 44 43 42 39 37 35 34 34 33 32 31 31 32 33 33 33 33 34 35 37 37 36 36 35 34 34 34
39 39 38 34 32 33 38 41 43 43 45 46 47 47 48 48 47 46 43 41 40 39 36 34 32 31 31 32 33 33 33 33 34 36 37 38 38 37 36 35 35 35
38 36 32 30 34 39 43 45 46 46 47 49 49 49 49 48 47 47 45 44 44 43 40 37 35 33 33 34 34 34 33 33 34 36 37 38 38 37 37 36 36 36
35 31 31 36 42 45 46 47 47 46 47 49 49 48 48 48 47 47 46 45 45 45 45 44 42 39 37 35 35 34 33 33 34 36 37 37 38 37 37 37 36 36
31 33 40 45 46 47 47 47 45 46 48 49 49 47 47 47 47 47 48 48 46 45 45 45 45 44 42 38 36 35 33 33 34 35 36 37 37 37 36 36 36 37
33 41 46 47 47 47 46 44 45 48 49 49 48 47 46 47 47 48 49 49 48 45 44 43 43 44 42 38 36 35 34 34 35 36 36 36 36 35 35 36 36 35
41 46 47 47 46 45 44 45 47 48 49 49 47 46 46 48 48 48 47 46 46 46 45 43 42 42 40 38 37 36 35 35 35 36 36 36 35 34 33 34 34 34
45 48 47 46 44 44 45 47 48 48 47 47 46 47 48 48 45 45 44 44 44 45 44 43 42 40 39 39 40 40 40 38 36 35 35 35 34 33 32 31 32 32
45 47 47 44 44 46 47 47 48 47 46 46 47 47 47 46 43 43 44 44 43 43 43 42 41 39 37 38 39 41 42 41 37 35 34 35 34 33 32 30 29 30
46 47 45 45 46 47 48 47 46 45 44 45 46 45 44 45 44 43 43 42 41 42 43 43 42 40 38 37 38 40 41 40 38 34 33 34 33 32 32 30 29 28
46 46 45 47 48 48 49 48 45 45 45 45 44 44 44 44 43 41 41 41 41 42 43 43 41 40 39 37 37 38 38 39 39 34 31 33 34 33 32 31 30 29
44 45 46 47 48 48 48 47 46 46 46 46 45 44 43 42 42 42 43 43 42 42 43 43 42 41 39 37 35 35 35 36 36 32 29 31 33 34 33 33 32 31
43 44 45 46 48 48 46 46 46 46 46 46 46 44 42 41 42 43 43 43 44 44 43 44 45 42 37 35 35 35 35 34 31 27 24 28 31 32 32 32 32 31
44 43 44 45 47 46 45 46 47 47 46 45 43 43 43 42 43 44 44 45 45 44 43 44 43 39 35 35 36 36 34 30 25 22 20 24 29 30 31 31 31 32
45 44 43 44 45 45 45 47 47 47 46 43 43 44 43 43 45 45 45 44 43 42 42 42 40 36 35 35 34 32 30 26 21 18 18 22 26 28 29 31 31 32
45 45 44 43 44 46 47 47 46 46 46 45 44 44 43 45 45 43 41 42 42 43 41 38 36 36 35 33 30 28 27 24 18 15 17 20 23 25 27 28 29 29
45 44 44 44 45 47 48 47 45 45 47 47 45 44 43 43 43 41 40 40 43 43 37 32 33 35 34 30 26 25 25 22 16 14 17 20 22 23 24 25 25 26
Wind_Direction
331 327 321 316 311 306 303 301 299 299 298 296 292 289 287 282 278 276 275 276 278 280 280 275 268 261 258 256 253 251 252 252 251 251 250 249 248 247 247 246 244 244
328 325 322 319 316 312 309 307 306 305 302 300 297 295 290 282 275 271 270 269 271 275 279 278 272 264 259 256 254 251 250 250 250 250 249 248 248 246 246 246 244 243
325 323 321 321 320 318 317 315 313 309 306 303 300 297 291 283 275 269 266 263 264 268 273 275 272 266 260 256 254 252 251 250 250 249 249 248 248 246 246 246 244 243
325 326 326 326 326 325 323 321 318 315 312 309 306 301 293 284 275 267 263 260 260 263 265 266 265 262 260 257 254 253 252 251 251 250 249 249 248 246 246 245 244 243
330 331 332 331 331 330 328 325 322 320 318 315 313 309 299 287 276 266 262 259 257 258 260 260 259 258 259 258 255 253 251 251 252 250 249 249 248 247 246 244 243 242
333 333 335 335 334 332 329 325 322 320 321 321 321 319 313 299 283 270 263 259 257 259 260 260 259 257 259 260 257 253 251 251 252 250 249 249 249 247 246 244 242 242
335 336 337 335 332 328 324 321 321 325 329 330 330 329 327 316 297 280 271 267 266 266 264 261 258 257 260 260 255 252 252 252 253 251 249 248 248 247 245 243 242 241
336 335 333 331 329 325 322 323 329 334 334 333 332 331 331 327 316 302 289 280 275 271 268 262 258 259 261 258 253 251 252 252 253 252 249 248 246 245 244 243 242 241
332 330 329 328 327 326 327 332 334 334 332 330 329 327 326 326 324 318 307 294 284 275 269 263 259 260 259 256 252 251 251 253 253 252 250 248 246 245 244 242 241 241
329 329 328 327 328 330 333 334 333 331 329 327 325 322 320 318 317 316 313 307 297 285 275 267 263 261 259 257 254 253 253 255 256 253 250 248 246 244 243 241 240 240
329 327 326 328 333 335 334 331 329 327 325 323 321 318 316 313 311 309 307 305 302 295 285 275 269 265 262 259 257 255 256 258 257 254 251 249 247 245 242 240 239 240
327 327 329 334 335 332 329 327 325 324 323 321 320 319 315 313 311 308 304 301 298 295 289 282 276 270 264 261 259 258 259 259 258 254 251 249 246 244 242 240 239 239
326 331 336 335 331 327 324 324 323 322 322 321 319 318 316 314 313 310 307 303 299 294 289 284 280 274 267 263 262 261 259 258 257 253 251 249 246 244 241 239 239 238
331 336 333 329 325 323 321 321 321 321 321 320 319 317 315 314 313 311 309 305 301 297 292 287 281 275 269 264 262 261 259 257 256 253 251 247 244 243 240 238 238 237
336 333 328 325 323 322 321 320 321 320 320 319 318 316 315 314 312 310 308 305 302 300 295 291 285 279 272 265 260 259 258 257 256 253 250 246 243 241 238 237 236 236
334 330 326 324 323 322 321 320 320 320 319 318 317 315 314 313 311 309 307 304 302 300 297 292 287 283 277 269 263 261 260 258 256 252 248 244 240 238 237 235 234 234
331 329 326 325 323 322 321 320 319 319 318 317 316 315 314 313 312 309 307 305 302 300 297 293 289 285 280 274 269 265 262 259 255 249 244 240 236 235 234 233 232 232
329 328 325 323 322 321 319 319 319 317 317 316 315 315 315 313 311 309 306 305 302 298 295 293 292 289 284 280 276 270 266 262 257 248 240 235 232 231 231 230 229 229
328 326 324 322 321 320 319 319 318 316 316 316 315 315 314 312 310 308 306 304 302 299 297 294 292 290 288 284 278 273 268 265 261 251 237 230 227 226 226 226 225 225
327 325 323 321 320 320 319 318 318 317 317 317 316 314 313 311 309 308 306 305 303 301 299 296 294 293 291 286 279 274 271 268 265 255 238 227 223 221 222 222 222 223
325 323 321 320 319 320 319 318 318 318 318 318 317 314 312 310 308 306 305 303 302 300 298 296 295 295 293 289 285 283 279 274 268 259 239 223 218 219 219 220 221 221
324 322 320 319 319 319 318 318 319 319 319 318 316 313 311 309 307 305 303 302 301 299 297 295 294 294 294 292 290 288 285 278 270 259 237 217 213 215 216 216 218 219
323 322 320 319 320 319 319 319 320 319 319 318 315 312 310 308 306 305 303 302 301 299 297 295 295 296 297 294 291 287 284 280 270 254 231 211 207 210 212 213 216 218
324 323 322 320 320 320 320 320 320 318 318 317 314 311 309 308 307 305 304 303 301 299 298 295 295 300 300 294 289 285 283 280 268 246 221 204 202 205 208 211 214 217
326 325 323 322 321 320 320 320 319 318 316 316 314 311 309 308 308 306 304 304 303 300 297 294 296 301 300 294 289 287 285 283 269 236 207 195 194 198 204 210 213 213
326 326 324 323 321 320 320 319 318 317 316 315 313 311 310 308 307 306 304 304 305 302 297 297 301 302 298 292 290 288 287 286 272 231 200 189 187 193 202 208 209 210